Regional Weather Roundup
Issued by NWS Charleston, SC

Current Version | Previous Version | Text Only | Print | Product List | Glossary Off
Versions: 1 2 3 4 5 6 7 8 9 10 11 12 13 14 15 16 17 18 19 20 21 22 23 24 25 26 27 28 29 30 31 32 33 34 35 36 37 38 39 40 41 42 43 44 45 46 47 48 49 50

000
ASUS42 KCHS 261712
RWRCHS

REGIONAL WEATHER ROUNDUP
NATIONAL WEATHER SERVICE CHARLESTON SC
100 PM EDT WED JUL 26 2017

NOTE: "FAIR" INDICATES FEW OR NO CLOUDS BELOW 12,000 FEET WITH NO
SIGNIFICANT WEATHER AND/OR OBSTRUCTIONS TO VISIBILITY.

NOT ALL STATIONS ARE QUALITY CONTROLLED. USE DATA WITH CAUTION...
ESPECIALLY DEWPOINT OBSERVATIONS.

SCZ027-030-031-034>040-042>050-261800-
...SOUTHEAST SOUTH CAROLINA...

CITY           SKY/WX    TMP DP  RH WIND       PRES   REMARKS
N CHARLESTON   TSTM      73  70  90 NE14      30.17R VSB 3/4
WATERFRONT PRK   N/A     80  74  82 S5G12     30.14R
JOHNS ISLAND   CLOUDY    81  73  78 CALM      30.15R
PINOPOLIS        N/A     84  79  84 SE5       30.05R HX  96
MONCKS CORNER  PTSUNNY   75  72  88 S6        30.13S
SUMMERVILLE    TSTM      79  77  94 SE3       30.15R
BEAUFORT MCAS  PTSUNNY   76  75  97 CALM      30.13S
BEAUFORT ARPT  LGT RAIN  77  73  88 CALM      30.12S
HILTON HEAD IS DRIZZLE   77  77 100 E8        30.13S
WALTERBORO     CLOUDY    82  73  74 S3        30.14R
ALLENDALE      NOT AVBL

...SOUTHERN MIDLANDS AND PEE DEE...

CITY           SKY/WX    TMP DP  RH WIND       PRES   REMARKS
GEORGETOWN     PTSUNNY   73  73 100 CALM      30.14S
KINGSTREE      PTSUNNY   84  75  74 NE3       30.13R HX  92
ORANGEBURG     CLOUDY    86  75  69 SE7       30.12R HX  95
BARNWELL       FAIR      86  73  66 E9        30.12S HX  93
AIKEN          NOT AVBL
MANNING        PTSUNNY   86  73  66 CALM      30.12R HX  93
COLUMBIA       CLOUDY    86  75  69 E7        30.12F HX  95
SUMTER         PTSUNNY   84  75  74 E7        30.12R HX  92
FLORENCE       MOSUNNY   87  76  69 NE9       30.14R HX  97
MYRTLE BEACH   PTSUNNY   82  75  78 E15       30.15R
N MYRTLE BEACH CLOUDY    82  75  79 E12G24    30.13R

$$

GAZ063-065-086>088-099>101-113>116-118-119-134>141-150-261800-
...SOUTHEAST GEORGIA...

CITY           SKY/WX    TMP DP  RH WIND       PRES   REMARKS
SAVANNAH ARPT  CLOUDY    83  73  72 E14       30.12S
HUNTER AAF     CLOUDY    79  75  89 SE7       30.09F
FORT STEWART   CLOUDY    82  74  75 NE6       30.08F
STATESBORO     CLOUDY    83  73  70 CALM      30.11F
SYLVANIA       PTSUNNY   80  77  91 SE3       30.13S
CLAXTON        FAIR      86  75  70 NE6       30.10F HX  94

...CSRA...CENTRAL AND FAR SOUTHEAST GEORGIA...

CITY           SKY/WX    TMP DP  RH WIND       PRES   REMARKS
THOMSON        SUNNY     88  75  65 S7        30.16F HX  98
AUGUSTA-BUSH   PTSUNNY   89  77  67 SE3       30.09F HX 101
AUGUSTA-DANIEL MOSUNNY   87  73  62 S5        30.11F HX  94
SWAINSBORO     FAIR      86  73  66 E9        30.11F HX  93
VIDALIA        CLOUDY    84  75  74 NE6       30.11F HX  92
EASTMAN        PTSUNNY   87  64  46 E8        30.13F
HAZLEHURST     FAIR      85  77  75 NE6       30.09F HX  96
ALMA           MOSUNNY   85  74  69 VRB6      30.09F HX  92
WAYCROSS       CLOUDY    85  79  81 NE3       30.09F HX  99
JESUP          NOT AVBL
BAXLEY         PTSUNNY   82  81  94 NE5       30.10F HX  95
BRUNSWICK      PTSUNNY   84  77  79 W5        30.11S HX  94
SAINT SIMONS   PTSUNNY   85  74  69 CALM      30.10S HX  92

$$

SCZ027-028-034-036>038-045-046-048>050-GAZ119-141-261800-
...LAKE AND SUPPLEMENTAL COASTAL OBSERVATIONS...

STATION/POSITION TIME  TEMP    WIND        PRES    WAVE   SWELL
                       AIR SEA DIR/SP/G            HT/PER HT/PER/DIR
                 (UTC) (F)     (DEG/KT/KT) (MB)    (FT/S) (FT/S/D)
WINYAH BAY       NOT AVBL
LAKE MURRAY      NOT AVBL
ACE BASIN NERRS  1545   77        CALM     1021.0
FORT PULASKI     1648   78 85  110/  8/ 10 1020.2F
SAPELO ISLAND    NOT AVBL

$$

ANZ835-935-AMZ111-154-330-350-352-354-370-450-454-472-261800-
...C-MAN AND BUOY OBSERVATIONS...

STATION/POSITION TIME  TEMP    WIND        PRES    WAVE   SWELL
                       AIR SEA DIR/SP/G            HT/PER HT/PER/DIR
                 (UTC) (F)     (DEG/KT/KT) (MB)    (FT/S) (FT/S/D)
BUOY 41004       1650   80 83  250/ 10/ 12 1019.5R   3/ 4   2/120/10
BUOY 41008       1550   79 81   70/ 16/ 19 1018.8    2/10   2/140/10
FOLLY BEACH CMAN 1600   79     210/ 15/ 17 1020.5R
CAPERS NEARSHORE NOT AVBL
FRIPP NEARSHORE  1608   77 83  150/ 12/ 16 1019.8F


STATION/POSITION TIME  TEMP    WIND        PRES    WAVE   SWELL
                       AIR SEA DIR/SP/G            HT/PER HT/PER/DIR
                 (UTC) (F)     (DEG/KT/KT) (MB)    (FT/S) (FT/S/D)
5E ST. MARYS GA  1630      81                N/A     2/11
FRYING PAN BUOY  1650   83 82   50/  6/  6 1019.4R   3/ 5   3/ 80/ 5
BUOY 41025       1650   80 83   40/ 14/ 16 1020.4F   3/ 5   2/ 40/ 7
CAPE LOOKOUT NC  1600   79      40/ 16/ 18 1020.6F
BUOY 41002       1650   78 83  240/  2/  4 1020.4R   3/ 5   2/260/ 5
BUOY 41010       1650   85 85  200/  4/  6 1019.8S   2/ 8   2/110/ 8
ST AUGUSTINE FL  1700   89 74  230/  7/  8 1019.2F


$$




USA.gov is the U.S. government's official web portal to all federal, state and local government web resources and services.